Satellite-Ground Cal/Val Region Overpasses Predictions

Prediction of Satellite NPP Overpassing Cal/Val Region: PacNW

Region Location: (Latitude: 10.00, Longitude: 139.50) to (Latitude: 22.70, Longitude: 165.60).

Table of predicted overpasses for the next 14.0 days since TLE Epoch: 10/20/2012
Interval Starting Time Starting Location Ending Time Ending Location
1 10/20/2012 15:53:24 ( 22.65, 146.06) 10/20/2012 15:56:59 ( 10.03, 143.06)
2 10/21/2012 03:02:29 ( 10.02, 153.59) 10/21/2012 03:06:05 ( 22.70, 150.57)
3 10/21/2012 15:34:23 ( 22.66, 150.82) 10/21/2012 15:37:58 ( 10.04, 147.81)
4 10/22/2012 02:43:27 ( 10.00, 158.35) 10/22/2012 02:47:03 ( 22.68, 155.33)
5 10/22/2012 15:15:21 ( 22.68, 155.57) 10/22/2012 15:18:56 ( 10.06, 152.57)
6 10/23/2012 02:24:27 ( 10.05, 163.09) 10/23/2012 02:28:02 ( 22.67, 160.09)
7 10/23/2012 14:56:20 ( 22.69, 160.33) 10/23/2012 14:59:56 ( 10.01, 157.32)
8 10/24/2012 02:08:09 ( 19.61, 165.60) 10/24/2012 02:09:01 ( 22.66, 164.85)
9 10/24/2012 03:46:55 ( 10.04, 142.47) 10/24/2012 03:50:27 ( 22.49, 139.51)
10 10/24/2012 14:37:18 ( 22.70, 165.09) 10/24/2012 14:40:54 ( 10.02, 162.07)
11 10/24/2012 16:18:48 ( 22.70, 139.71) 10/24/2012 16:19:02 ( 21.87, 139.51)
12 10/25/2012 03:27:54 ( 10.03, 147.23) 10/25/2012 03:31:29 ( 22.66, 144.23)
13 10/25/2012 15:59:48 ( 22.65, 144.46) 10/25/2012 16:03:23 ( 10.03, 141.45)
14 10/26/2012 03:08:53 ( 10.02, 151.99) 10/26/2012 03:12:28 ( 22.65, 148.99)
15 10/26/2012 15:40:46 ( 22.65, 149.21) 10/26/2012 15:44:21 ( 10.04, 146.21)
16 10/27/2012 02:49:51 ( 10.02, 156.74) 10/27/2012 02:53:26 ( 22.64, 153.74)
17 10/27/2012 15:21:45 ( 22.66, 153.97) 10/27/2012 15:25:20 ( 10.04, 150.97)
18 10/28/2012 02:30:50 ( 10.01, 161.50) 10/28/2012 02:34:26 ( 22.70, 158.48)
19 10/28/2012 15:02:43 ( 22.67, 158.73) 10/28/2012 15:06:18 ( 10.05, 155.73)
20 10/29/2012 02:12:37 ( 12.89, 165.59) 10/29/2012 02:15:24 ( 22.69, 163.24)
21 10/29/2012 03:53:18 ( 10.01, 140.88) 10/29/2012 03:54:59 ( 15.95, 139.50)
22 10/29/2012 14:43:42 ( 22.67, 163.48) 10/29/2012 14:47:17 ( 10.05, 160.48)
23
